[[{"header":{"parameterUnit":"m.s-1","parameterCategory":1,"la1":30.2991,"la2":30.254,"lo1":-89.0895,"lo2":-89.0444,"dy":0.0017,"dx":0.0017,"nx":28,"ny":28,"refTime":"2025-01-21T09:00:00:Z","depth":0,"parameterNumber":2,"parameterNumberName":"U-component_of_WINDS"},"data":[0,0,0,0,0,0,0,0,0,0,0,0,0,0,0,0,0,0,0,0,0,0,0,0,0,0,0,0,0,0,0,0,0,0,0,0,0,0,0,0,0,0,0,0,0,0,0,0,0,0,0,0,0,0,0,0,0,0,-2.1717,-2.1717,0,-2.1751,-2.1751,-2.1752,-2.1691,-2.1689,-2.1687,-2.1685,-2.1721,-2.1724,-2.1727,0,0,0,0,0,0,0,0,0,0,0,0,0,-2.1599,-2.1601,-2.1717,-2.1717,-2.1717,-2.1751,-2.1751,-2.1752,-2.1691,-2.1689,-2.1686,-2.1684,-2.172,-2.1724,-2.1727,0,0,0,0,0,0,0,0,0,0,0,0,0,-2.1643,-2.1602,-2.1717,-2.1691,-2.1689,-2.1751,-2.1751,-2.1752,-2.1692,-2.1689,-2.1686,-2.1683,-2.1719,-2.1723,-2.1728,-2.1816,0,0,-2.1741,-2.1743,0,0,0,0,0,0,0,0,-2.1641,-2.1648,-2.1695,-2.1693,-2.1691,-2.1713,-2.1723,-2.1773,-2.1693,-2.1691,-2.1685,-2.1681,-2.1721,-2.1725,-2.1738,-2.1817,-2.1819,-2.1741,-2.1744,-2.1746,-2.1747,0,0,0,0,0,0,0,-2.1638,-2.1646,-2.173,-2.1695,-2.1693,-2.1678,-2.1681,-2.1732,-2.1723,-2.1691,-2.1687,-2.1691,-2.172,-2.1734,-2.1739,-2.1819,-2.1741,-2.1745,-2.1748,-2.1749,-2.1972,-2.1975,0,0,0,0,0,0,-2.1638,-2.1644,-2.1729,-2.1731,-2.1658,-2.1683,-2.1686,-2.1709,-2.1722,-2.1721,-2.1694,-2.1688,-2.1729,-2.1734,-2.174,-2.1844,-2.1746,-2.175,-2.1752,-2.1968,-2.1972,-2.1976,0,0,0,0,0,0,-2.1635,-2.1646,-2.1728,-2.1686,-2.1696,-2.1688,-2.1715,-2.1712,-2.1726,-2.1724,-2.1723,-2.1711,-2.1726,-2.1734,-2.1797,-2.1844,-2.1752,-2.1755,-2.1964,-2.197,-2.1974,-2.2053,0,0,0,0,0,0,-2.1632,-2.1646,-2.1679,-2.1687,-2.1698,-2.1785,-2.1718,-2.1715,-2.1734,-2.1727,-2.174,-2.1739,-2.1724,-2.1791,-2.1801,-2.1848,-2.1759,-2.196,-2.1967,-2.1973,-2.2046,-2.206,-2.2072,0,0,0,0,0,-2.1628,-2.17,-2.1681,-2.1692,-2.174,-2.1788,-2.1794,-2.1775,-2.1738,-2.1772,-2.177,-2.1739,-2.1837,-2.1798,-2.1809,-2.1858,-2.1957,-2.1965,-2.1972,-2.204,-2.2057,-2.2071,0,0,0,0,0,0,-2.1698,-2.1701,-2.168,-2.1756,-2.1772,-2.1777,-2.1819,-2.1794,-2.1821,-2.1813,-2.1789,-2.1793,-2.1861,-2.1866,-2.1822,-2.1944,-2.1891,-2.1901,-2.1939,-2.1955,-2.1967,-2.1965,-2.1762,0,0,0,0,0,-2.1722,-2.1761,-2.1761,-2.1828,-2.1837,-2.1827,-2.1847,-2.1831,-2.1847,-2.1854,-2.1857,-2.1873,-2.1908,-2.1931,-2.1963,-2.2045,-2.2047,-2.2085,-2.2098,-2.2108,-2.2118,-2.2161,-2.2178,-2.2001,-2.2001,-2.2,0,0,-2.1773,-2.1779,-2.1805,-2.1843,-2.1853,-2.1894,-2.1833,-2.1879,-2.1909,-2.1861,-2.1921,-2.1923,-2.194,-2.2014,-2.2046,-2.202,-2.2167,-2.2118,-2.2126,-2.213,-2.2171,-2.2188,-2.2202,-2.2006,-2.2005,-2.2004,0,0,-2.1886,-2.1894,-2.1952,-2.1963,-2.1979,-2.1971,-2.1985,-2.1994,-2.1994,-2.2053,-2.2018,-2.2053,-2.2113,-2.2126,-2.2141,-2.2258,-2.223,-2.2269,-2.2336,-2.2379,-2.2393,-2.2406,-2.2448,-2.2463,-2.2278,-2.2278,-2.2278,0,-2.1947,-2.2007,-2.1984,-2.2032,-2.205,-2.2007,-2.2065,-2.2077,-2.2103,-2.2116,-2.2086,-2.216,-2.2168,-2.2244,-2.2272,-2.2285,-2.23,-2.2268,-2.2393,-2.2405,-2.2416,-2.2456,-2.2472,-2.2283,-2.2282,-2.2281,-2.2281,0,-2.2081,-2.2123,-2.2167,-2.2193,-2.2215,-2.2268,-2.2253,-2.2278,-2.226,-2.2256,-2.2317,-2.2325,-2.2357,-2.2374,-2.2357,-2.2447,-2.243,-2.2397,-2.2343,-2.2438,-2.2475,-2.249,-2.2289,-2.2288,-2.2286,-2.2285,0,0,-2.2241,-2.2253,-2.2269,-2.228,-2.2294,-2.2326,-2.2376,-2.2407,-2.243,-2.2448,-2.249,-2.2541,-2.251,-2.2527,-2.2511,-2.2548,-2.264,-2.251,-2.251,-2.2535,-2.274,-2.2766,-2.2784,-2.2621,-2.2624,-2.2626,-2.2739,0,-2.2354,-2.2441,-2.2421,-2.2507,-2.2545,-2.2504,-2.2548,-2.2561,-2.2558,-2.259,-2.2586,-2.2623,-2.2579,-2.2589,-2.2624,-2.2622,-2.2682,-2.2613,-2.266,-2.2662,-2.2658,-2.2803,-2.2831,-2.2937,-2.2753,-2.2756,-2.2758,0,-2.2498,-2.2522,-2.2611,-2.2618,-2.2633,-2.2673,-2.27,-2.273,-2.2744,-2.2739,-2.2757,-2.2733,-2.2783,-2.2728,-2.2796,-2.275,-2.2767,-2.2769,-2.2773,-2.2778,-2.2717,-2.2813,-2.2971,-2.2987,-2.278,-2.2778,-2.2777,0,-2.2606,-2.2661,-2.2721,-2.2731,-2.2741,-2.277,-2.2775,-2.2786,-2.2806,-2.2829,-2.2841,-2.287,-2.2886,-2.2909,-2.2893,-2.2854,-2.2964,-2.2907,-2.2961,-2.2962,-2.2987,-2.2986,-2.3151,-2.2997,-2.2997,-2.2997,-2.2996,0,-2.2735,-2.2792,-2.277,-2.2807,-2.2869,-2.2845,-2.2907,-2.2908,-2.2917,-2.2954,-2.292,-2.2955,-2.2932,-2.2965,-2.2952,-2.3011,-2.3018,-2.3015,-2.3012,-2.3019,-2.302,-2.3031,-2.3024,-2.3001,-2.3,-2.2999,-2.2998,0,-2.2868,-2.2855,-2.2918,-2.2922,-2.2924,-2.2969,-2.2972,-2.3007,-2.3,-2.3047,-2.3056,-2.3046,-2.3083,-2.3069,-2.3109,-2.3101,-2.3175,-2.3161,-2.3171,-2.3167,-2.3222,-2.3218,-2.3402,-2.3425,-2.3255,-2.3257,-2.3258,0,-2.2951,-2.2994,-2.3001,-2.3023,-2.3031,-2.3067,-2.3086,-2.3064,-2.3086,-2.3105,-2.3137,-2.3171,-2.3197,-2.3257,-2.3254,-2.3283,-2.3271,-2.3333,-2.3275,-2.3281,-2.3272,-2.327,-2.3274,-2.3345,-2.3347,-2.3349,-2.335,0,-2.3101,-2.3093,-2.3122,-2.315,-2.3174,-2.3195,-2.3212,-2.3232,-2.3211,-2.3237,-2.3274,-2.3294,-2.3334,-2.3368,-2.3394,-2.3399,-2.3372,-2.3368,-2.3382,-2.3391,-2.3394,-2.3394,-2.3203,-2.3364,-2.3363,-2.3362,-2.3361,-2.336,-2.3212,-2.3248,-2.3259,-2.3293,-2.3303,-2.332,-2.3353,-2.335,-2.338,-2.3411,-2.3396,-2.3439,-2.345,-2.3483,-2.3492,-2.3525,-2.35,-2.3521,-2.3526,-2.3532,-2.3539,-2.3388,-2.3529,-2.3529,-2.3528,-2.3528,-2.3528,0,-2.3361,-2.3366,-2.3397,-2.3422,-2.3449,-2.3419,-2.3437,-2.3461,-2.3499,-2.3512,-2.3538,-2.358,-2.3613,-2.3611,-2.3641,-2.3668,-2.3656,-2.3676,-2.3675,-2.3676,-2.3559,-2.3544,-2.3686,-2.3686,-2.3686,-2.3686,-2.3685,-2.3685,-2.3442,-2.35,-2.3493,-2.3556,-2.356,-2.3602,-2.3614,-2.3629,-2.364,-2.3688,-2.3715,-2.3713,-2.372,-2.375,-2.3778,-2.3777,-2.379,-2.3815,-2.3809,-2.37,-2.3685,-2.367,-2.3656,-2.3818,-2.3818,-2.3924,-2.3925,-2.3926]},{"header":{"parameterUnit":"m.s-1","parameterCategory":1,"la1":30.2991,"la2":30.254,"lo1":-89.0895,"lo2":-89.0444,"dy":0.0017,"dx":0.0017,"nx":28,"ny":28,"refTime":"2025-01-21T09:00:00:Z","depth":0,"parameterNumber":3,"parameterNumberName":"V-component_of_WINDS"},"data":[0,0,0,0,0,0,0,0,0,0,0,0,0,0,0,0,0,0,0,0,0,0,0,0,0,0,0,0,0,0,0,0,0,0,0,0,0,0,0,0,0,0,0,0,0,0,0,0,0,0,0,0,0,0,0,0,0,0,-5.8746,-5.8747,0,-5.8855,-5.8856,-5.8857,-5.88,-5.8797,-5.8794,-5.8792,-5.89,-5.8905,-5.8911,0,0,0,0,0,0,0,0,0,0,0,0,0,-5.8486,-5.8491,-5.8746,-5.8747,-5.8749,-5.8854,-5.8856,-5.8857,-5.8801,-5.8797,-5.8794,-5.879,-5.8898,-5.8904,-5.8911,0,0,0,0,0,0,0,0,0,0,0,0,0,-5.8597,-5.8493,-5.8746,-5.8733,-5.8733,-5.8854,-5.8856,-5.8858,-5.8801,-5.8797,-5.8793,-5.8789,-5.8896,-5.8904,-5.8912,-5.905,0,0,-5.8938,-5.8941,0,0,0,0,0,0,0,0,-5.8591,-5.8607,-5.8734,-5.8734,-5.8734,-5.8809,-5.8804,-5.8922,-5.8803,-5.8775,-5.8792,-5.8787,-5.8873,-5.8883,-5.8913,-5.9056,-5.906,-5.8938,-5.8943,-5.8947,-5.8949,0,0,0,0,0,0,0,-5.8584,-5.8602,-5.8789,-5.8736,-5.8736,-5.8721,-5.8732,-5.8826,-5.8847,-5.8777,-5.8774,-5.8787,-5.8872,-5.8905,-5.8915,-5.9062,-5.8938,-5.8946,-5.8951,-5.8954,-5.9323,-5.9328,0,0,0,0,0,0,-5.8577,-5.8596,-5.8785,-5.8792,-5.8651,-5.8729,-5.8742,-5.879,-5.8846,-5.885,-5.8791,-5.8784,-5.8893,-5.8905,-5.8918,-5.9084,-5.8947,-5.8955,-5.896,-5.9318,-5.9324,-5.9329,0,0,0,0,0,0,-5.8572,-5.8594,-5.8781,-5.8693,-5.8716,-5.8738,-5.8793,-5.8794,-5.8827,-5.8856,-5.8859,-5.8821,-5.889,-5.8907,-5.9018,-5.9087,-5.8959,-5.8966,-5.9313,-5.932,-5.9327,-5.9417,0,0,0,0,0,0,-5.8564,-5.8593,-5.8647,-5.8695,-5.8721,-5.888,-5.8797,-5.8799,-5.8842,-5.8834,-5.8885,-5.8889,-5.8888,-5.9006,-5.9027,-5.9096,-5.8973,-5.9307,-5.9316,-5.9325,-5.9408,-5.9426,-5.9442,0,0,0,0,0,-5.8555,-5.8667,-5.865,-5.8673,-5.8788,-5.8884,-5.8899,-5.8896,-5.8847,-5.8901,-5.892,-5.8887,-5.9076,-5.9018,-5.9041,-5.9114,-5.9302,-5.9313,-5.9324,-5.94,-5.9423,-5.9442,0,0,0,0,0,0,-5.8625,-5.8673,-5.8654,-5.8785,-5.8831,-5.8875,-5.8942,-5.892,-5.898,-5.897,-5.8963,-5.8975,-5.9091,-5.9113,-5.9048,-5.9251,-5.9182,-5.9197,-5.9232,-5.9254,-5.927,-5.9263,-5.898,0,0,0,0,0,-5.8656,-5.8731,-5.8768,-5.888,-5.8904,-5.892,-5.8961,-5.8955,-5.9002,-5.9021,-5.9048,-5.9094,-5.9164,-5.921,-5.9275,-5.9411,-5.9421,-5.9472,-5.9489,-5.9503,-5.9517,-5.959,-5.9613,-5.9365,-5.9365,-5.9364,0,0,-5.872,-5.8755,-5.8803,-5.8895,-5.893,-5.9007,-5.8936,-5.9021,-5.9077,-5.9033,-5.9141,-5.9162,-5.9213,-5.9337,-5.9393,-5.9359,-5.9588,-5.9517,-5.9528,-5.9534,-5.9603,-5.9627,-5.9648,-5.9372,-5.9371,-5.937,0,0,-5.8876,-5.8911,-5.9007,-5.9044,-5.9099,-5.9108,-5.9131,-5.9179,-5.9191,-5.9299,-5.9268,-5.9335,-5.9455,-5.9492,-5.9527,-5.9698,-5.967,-5.9719,-5.9808,-5.988,-5.9899,-5.9917,-5.9977,-5.9999,-5.9733,-5.9733,-5.9733,0,-5.8948,-5.9064,-5.906,-5.9147,-5.9188,-5.9153,-5.925,-5.9286,-5.9359,-5.9387,-5.9349,-5.9499,-5.953,-5.9663,-5.9705,-5.9734,-5.976,-5.9713,-5.9897,-5.9914,-5.993,-5.9988,-6.0011,-5.9738,-5.9738,-5.9737,-5.9737,0,-5.9151,-5.9231,-5.9303,-5.9375,-5.9424,-5.9516,-5.9525,-5.9575,-5.9564,-5.9577,-5.9687,-5.9724,-5.9797,-5.9827,-5.9817,-5.9959,-5.9936,-5.9898,-5.9828,-5.996,-6.0014,-6.0036,-5.9747,-5.9745,-5.9743,-5.9741,0,0,-5.9354,-5.9423,-5.9449,-5.9482,-5.9539,-5.9601,-5.9691,-5.9763,-5.9806,-5.9857,-5.9932,-6.0034,-5.9999,-6.0039,-6.0032,-6.0095,-6.0228,-6.0049,-6.005,-6.0081,-6.0385,-6.0414,-6.044,-6.0209,-6.0214,-6.0217,-6.0381,0,-5.9514,-5.9673,-5.9671,-5.9818,-5.9892,-5.986,-5.9938,-5.9981,-5.9996,-6.006,-6.0075,-6.0148,-6.0096,-6.012,-6.018,-6.0199,-6.0289,-6.0187,-6.0278,-6.0282,-6.0267,-6.0468,-6.0499,-6.0653,-6.0402,-6.0406,-6.0408,0,-5.9722,-5.9782,-5.9936,-5.9983,-6.0014,-6.0084,-6.015,-6.0212,-6.026,-6.0266,-6.0311,-6.0295,-6.0385,-6.0313,-6.0437,-6.0368,-6.0405,-6.042,-6.0425,-6.0434,-6.0353,-6.0483,-6.0701,-6.0724,-6.0442,-6.0439,-6.0437,0,-5.9855,-5.9974,-6.0081,-6.011,-6.0167,-6.0217,-6.0243,-6.0287,-6.033,-6.0387,-6.0415,-6.0482,-6.0518,-6.057,-6.0572,-6.0519,-6.0697,-6.0625,-6.0704,-6.0704,-6.0743,-6.0741,-6.0971,-6.0767,-6.0767,-6.0766,-6.0766,0,-6.0035,-6.013,-6.0142,-6.0208,-6.0314,-6.0311,-6.0416,-6.0437,-6.0476,-6.0545,-6.052,-6.0585,-6.0584,-6.065,-6.0651,-6.0754,-6.077,-6.0777,-6.0777,-6.078,-6.0779,-6.0804,-6.0794,-6.0772,-6.0771,-6.077,-6.0769,0,-6.0201,-6.0213,-6.0328,-6.0373,-6.0387,-6.0463,-6.05,-6.0563,-6.0575,-6.0663,-6.0683,-6.0702,-6.0779,-6.0786,-6.0874,-6.0875,-6.0999,-6.0987,-6.0984,-6.0982,-6.1061,-6.1053,-6.1316,-6.135,-6.1123,-6.1125,-6.1127,0,-6.0315,-6.0388,-6.0441,-6.0486,-6.0515,-6.0588,-6.0633,-6.0632,-6.0679,-6.0739,-6.0794,-6.0868,-6.0928,-6.1051,-6.1072,-6.1139,-6.1128,-6.1216,-6.1138,-6.1139,-6.113,-6.1126,-6.1133,-6.1231,-6.1233,-6.1235,-6.1237,0,-6.0516,-6.0518,-6.0584,-6.0652,-6.0706,-6.076,-6.0809,-6.0847,-6.0852,-6.0906,-6.0985,-6.1031,-6.1121,-6.1195,-6.1261,-6.1286,-6.1263,-6.1261,-6.1283,-6.1287,-6.1282,-6.1286,-6.1025,-6.1255,-6.1253,-6.1252,-6.1251,-6.125,-6.066,-6.0724,-6.0771,-6.0845,-6.0882,-6.093,-6.0991,-6.1011,-6.1077,-6.1151,-6.1146,-6.1233,-6.1278,-6.1365,-6.1395,-6.1462,-6.1433,-6.1464,-6.1472,-6.148,-6.1489,-6.1272,-6.1474,-6.1473,-6.1473,-6.1472,-6.1472,0,-6.086,-6.0889,-6.0957,-6.1028,-6.1086,-6.106,-6.1113,-6.1163,-6.124,-6.1285,-6.1344,-6.1434,-6.1505,-6.1532,-6.1602,-6.165,-6.1641,-6.1668,-6.1665,-6.1671,-6.1511,-6.1485,-6.1675,-6.1675,-6.1674,-6.1674,-6.1674,-6.1674,-6.0971,-6.1077,-6.1085,-6.1209,-6.1237,-6.1322,-6.1355,-6.1398,-6.1434,-6.1536,-6.1596,-6.1613,-6.1651,-6.1723,-6.1787,-6.1792,-6.1819,-6.1851,-6.1853,-6.1703,-6.1682,-6.1663,-6.1639,-6.1857,-6.1857,-6.2007,-6.2009,-6.201]}]]